This is the latest recevied weather packets stored in our database for station/object NC4M. If no packets are shown the sender has not sent any weather packets the latest 10 day(s).
| Time | Temp. | Humidity | Pressure | Rain* | Wind** | Luminosity | Snow |
|---|---|---|---|---|---|---|---|
| 1788011245 | 21.11° C | 82% | 1021.6 hPa | 0 mm | - | 38 W/m² | - |
| 1788010944 | 20.56° C | 83% | 1021.8 hPa | 0 mm | - | 41 W/m² | - |
| 1788010639 | 19.44° C | 86% | 1021.8 hPa | 0 mm | - | 58 W/m² | - |
| 1788010338 | 18.89° C | 89% | 1021.9 hPa | 0 mm | - | 74 W/m² | - |
| 1788010037 | 18.33° C | 90% | 1021.8 hPa | 0 mm | - | 49 W/m² | - |
| 1788009732 | 17.78° C | 91% | 1021.8 hPa | 0 mm | - | 37 W/m² | - |
| 1788009430 | 17.78° C | 93% | 1021.5 hPa | 0 mm | - | 35 W/m² | - |
| 1788009125 | 17.22° C | 94% | 1021.5 hPa | 0 mm | - | 31 W/m² | - |
| 1788008821 | 16.67° C | 96% | 1021.2 hPa | 0 mm | - | 28 W/m² | - |
| 1788008520 | 16.11° C | 97% | 1021.4 hPa | 0 mm | - | 26 W/m² | - |
| 1788008218 | 16.11° C | 97% | 1021.3 hPa | 0 mm | - | 25 W/m² | - |
| 1788007916 | 15.56° C | 97% | 1021.4 hPa | 0 mm | - | 24 W/m² | - |
| 1788007616 | 15.56° C | 98% | 1021.5 hPa | 0 mm | - | 23 W/m² | - |
| 1788007316 | 15.56° C | 98% | 1021.3 hPa | 0 mm | - | 22 W/m² | - |
| 1788007011 | 15.56° C | 98% | 1021.1 hPa | 0 mm | - | 20 W/m² | - |
| 1788006710 | 15.56° C | 98% | 1021.2 hPa | 0 mm | - | 19 W/m² | - |
| 1788006405 | 15° C | 98% | 1021.2 hPa | 0 mm | - | 18 W/m² | - |
| 1788006104 | 15° C | 98% | 1021.3 hPa | 0 mm | - | 17 W/m² | - |
| 1788005804 | 15° C | 97% | 1021.4 hPa | 0 mm | - | 15 W/m² | - |
| 1788005499 | 15° C | 97% | 1021.4 hPa | 0 mm | - | 13 W/m² | - |
| 1788005198 | 15° C | 97% | 1021.5 hPa | 0 mm | - | 10 W/m² | - |
| 1788004897 | 15° C | 97% | 1021.4 hPa | 0 mm | - | 9 W/m² | - |
| 1788004592 | 15° C | 97% | 1021.2 hPa | 0 mm | - | 7 W/m² | - |
| 1788004292 | 15° C | 97% | 1021.2 hPa | 0 mm | - | 6 W/m² | - |
| 1788003991 | 15° C | 97% | 1021.3 hPa | 0 mm | - | 4 W/m² | - |
* Rain latest hour (hover to see other rain measurements)
** Current wind speed in m/s (hover to see current wind gust speed)